Content
SEND FEEDBACK

Daily
Averages
Monthly
Summary
Mexico

TIERRA NEGRA, QUINTANA ROO


Home > North America > Mexico > Quintana Roo
Elevation: 75 feet     Latitude: 18 48N     Longitude: 088 34W

WEATHER
 
SELECT A DAY
Number of Records: 122,150;   Date Range: 1/1/95 - 7/20/14
 
SHARE

PRINT THIS DATA

[ ← Previous Day ]
WEATHER ALMANAC - OCTOBER 29, 2013
[ Next Day → ]
[ °C ]   °F
Weather ElementAverageHighLow
Temperature80.6 °F87 °F (2:50 pm)75.2 °F (6:45 am)
Dewpoint75.5 °F79 °F (5:50 pm)71.6 °F (6:45 am)
Humidity84.4 %97 % (5:50 pm)66 % (2:50 pm)
Barometer29.98 in30.04 in (8:50 am)29.92 in (2:42 pm)
Wind Speed5.4 mph11.5 mph (6:45 am)
Weather ElementAverage
Visibility6.4 mi
Wind DirectionENE (84.1 °)

Weather ElementTotal
Precipitation---
Cooling Degree Days16.1 (Base 65)
Growing Degree Days31.1 (Base 50)
Averaged from 22 records on October 29, 2013
WEATHER CONDITIONS BREAKOUT
WIND DIRECTION BREAKOUT
WEATHER BY HOUR - OCTOBER 29, 2013
[ °C ]   °F
Local TimeTemperatureDewpointHumidityBarometerVisibilityWind DirectionWind SpeedGust SpeedPrecipitationEventsConditions
5:45 AM76.0 °F75.0 °F96 %29.99 in6.0 miNorth2.2 mphRainLight Drizzle
6:45 AM75.2 °F71.6 °F89 %30.00 in4.0 miNNE (30°)11.5 mphRainLight Rain
7:43 AM75.2 °F71.6 °F89 %30.01 in5.0 miNorth (360°)6.9 mphOvercast
8:50 AM77.0 °F75.0 °F93 %30.04 in6.0 miNorth4.5 mphRainLight Drizzle
8:53 AM77.0 °F71.6 °F83 %30.04 in7.0 miNorth (360°)6.9 mphOvercast
9:42 AM77.0 °F71.6 °F83 %30.03 in7.0 miCalmOvercast
10:42 AM80.6 °F75.2 °F84 %7.0 miCalmOvercast
11:44 AM80.6 °F75.2 °F84 %30.01 in7.0 miNNE (30°)6.9 mphOvercast
11:50 AM83.0 °F76.0 °F75 %30.01 in6.0 miENE (60°)4.5 mphScattered Clouds
12:44 PM84.2 °F77.0 °F79 %29.96 in7.0 miCalmMostly Cloudy
1:41 PM86.0 °F78.8 °F79 %29.93 in7.0 miCalmMostly Cloudy
2:42 PM84.2 °F77.0 °F79 %29.92 in7.0 miENE (70°)9.2 mphMostly Cloudy
2:50 PM87.0 °F77.0 °F66 %29.93 in6.0 miENE (70°)4.5 mphPartly Cloudy
3:44 PM84.2 °F77.0 °F79 %29.92 in7.0 miENE (70°)9.2 mphMostly Cloudy
4:45 PM84.2 °F77.0 °F79 %29.95 in7.0 miENE (70°)9.2 mphMostly Cloudy
4:55 PM84.2 °F77.0 °F79 %29.95 in7.0 miENE (70°)9.2 mphMostly Cloudy
5:45 PM82.4 °F77.0 °F84 %29.95 in7.0 miENE (70°)9.2 mphMostly Cloudy
5:50 PM80.0 °F79.0 °F97 %29.96 in6.0 miEast (90°)6.7 mphRainLight Rain
6:45 PM80.6 °F75.2 °F84 %29.97 in7.0 miENE (70°)6.9 mphMostly Cloudy
6:57 PM80.6 °F75.2 °F84 %29.97 in7.0 miENE (70°)6.9 mphMostly Cloudy
8:50 PM77.0 °F76.0 °F96 %30.02 in5.0 miNNW (340°)2.2 mphPartly Cloudy
11:50 PM77.0 °F76.0 °F96 %29.99 in5.0 miNNE (20°)2.2 mphPartly Cloudy
Hourly data recorded from MMCM, located miles away from Tierra Negra, Quintana Roo







STORIES FROM OUR PARTNERS